Flag for U.S.A. Weather past 2 weeks in Nashville, Tennessee, U.S.A.

Now
52 °F

Clear.


Feels Like: 52 °F
Forecast: 47 / 69 °F
Wind: No wind

Location: Nashville International Airport

Current Time: Apr 28, 2015 at 12:53:14 AM

Latest Report: Apr 27, 2015 at 11:53 PM


Visibility: 10 mi

Pressure: 30.00 "Hg

Humidity: 59%

Dew point: 38 °F

Location of NashvilleLocation

Historic Weather in Nashville — Graph

°F

Nashville temperature yesterday

Maximum temperature yesterday: 68 °F (at 4:53 PM)
Minimum temperature yesterday: 43 °F (at 5:53 AM)
Average temperature yesterday: 56 °F

Past Weeks' High & Low Weather Summary

 TemperatureHumidityPressure
High83 °F (Apr 25, 3:53 PM)100% (Apr 18, 4:53 AM)30.14 "Hg (Apr 18, 4:53 AM)
Low40 °F (Apr 24, 5:53 AM)20% (Apr 24, 12:53 PM)29.46 "Hg (Apr 25, 6:53 PM)
Average62 °F73%29.93 "Hg
* Reported Apr 12 11:53 PM — Apr 27 11:53 PM, Nashville, Weather by CustomWeather, © 2015

Note: Actual official high and low records may vary slightly from our data, if they occured in-between our weather recording intervals... More about our weather records

Advertising

Nashville weather history for previous 24 hours

 ConditionsComfort  
Time TempWeatherWind HumidityBarometerVisibility
11:53 PM
Mon, Apr 27
52 °FClear.No wind59%30.00 "Hg10 mi
10:53 PM53 °FClear.7 mph56%29.97 "Hg10 mi
9:53 PM53 °FClear.8 mph59%29.98 "Hg10 mi
8:53 PM57 °FClear.6 mph51%29.98 "Hg10 mi
7:53 PM59 °FPassing clouds.8 mph49%29.96 "Hg10 mi
6:53 PM62 °FPassing clouds.10 mph43%29.93 "Hg10 mi
5:53 PM66 °FPassing clouds.7 mph36%29.94 "Hg10 mi
4:53 PM68 °FPassing clouds.9 mph36%29.94 "Hg10 mi
3:53 PM67 °FPassing clouds.8 mph35%29.94 "Hg10 mi
2:53 PM66 °FPartly sunny.14 mph36%29.96 "Hg10 mi
1:53 PM66 °FBroken clouds.13 mph34%29.98 "Hg10 mi
12:53 PM65 °FScattered clouds.12 mph36%29.98 "Hg10 mi
11:53 AM63 °FBroken clouds.6 mph40%29.99 "Hg10 mi
10:53 AM61 °FPartly sunny.13 mph42%30.02 "Hg10 mi
9:53 AM59 °FPassing clouds.7 mph48%30.01 "Hg10 mi
8:53 AM55 °FScattered clouds.3 mph57%30.01 "Hg10 mi
7:53 AM50 °FScattered clouds.7 mph68%30.00 "Hg10 mi
6:53 AM46 °FPartly sunny.7 mph79%29.96 "Hg10 mi
5:53 AM43 °FPassing clouds.6 mph82%29.95 "Hg10 mi
4:53 AM44 °FClear.7 mph79%29.93 "Hg10 mi
3:53 AM46 °FClear.No wind77%29.91 "Hg10 mi
2:53 AM46 °FClear.6 mph79%29.91 "Hg10 mi
1:53 AM48 °FClear.6 mph83%29.90 "Hg10 mi
12:53 AM49 °FClear.3 mph90%29.90 "Hg9 mi
Weather by CustomWeather, © 2015

See weather overviewHow to use our weather pages